Date,TemperatureHighF,TemperatureAvgF,TemperatureLowF,DewpointHighF,DewpointAvgF,DewpointLowF,HumidityHigh,HumidityAvg,HumidityLow,PressureMaxIn,PressureMinIn,WindSpeedMaxMPH,WindSpeedAvgMPH,GustSpeedMaxMPH,PrecipitationSumIn
2013-1-3,28,21,12,3,0,-2,52,40,31,30.11,30.00,5,2,6,0.01
2013-1-4,39,34,25,24,23,20,79,62,53,29.96,29.80,8,5,13,0.02
2013-1-7,41,39,37,30,24,19,77,56,46,30.33,30.18,5,3,9,0.00
2013-1-8,46,44,39,31,30,29,69,58,52,30.33,30.24,8,5,16,0.00
2013-1-9,43,35,26,33,29,23,91,80,64,30.37,29.96,5,1,9,0.00
2013-1-10,47,45,42,26,25,24,50,44,41,30.38,30.29,7,5,12,0.00
2013-1-11,40,38,32,31,29,26,78,70,66,30.47,30.31,2,0,4,0.00
2013-1-14,62,58,53,52,44,32,88,62,39,30.08,29.95,5,3,8,0.00
2013-1-15,41,41,40,27,26,26,58,56,54,30.26,30.23,2,1,4,0.00
2013-1-16,33,33,32,31,30,29,91,91,90,29.99,29.81,2,1,4,0.10
2013-1-17,42,40,35,33,31,26,86,71,54,30.00,29.93,5,3,9,0.21
2013-1-18,27,24,20,1,-1,-4,39,34,29,30.37,30.32,7,5,10,0.00
2013-1-22,25,24,23,11,6,0,59,45,36,29.89,29.83,7,5,14,0.00
2013-1-23,17,16,13,-8,-9,-10,37,32,30,30.09,30.04,7,5,11,0.00
2013-1-24,21,15,7,-6,-8,-10,47,34,27,30.12,30.04,8,5,13,0.00
2013-1-25,25,20,12,-6,-7,-9,41,29,23,30.30,30.14,5,4,13,0.00
2013-1-28,31,28,22,20,8,6,72,44,34,30.39,30.18,3,1,4,0.00
2013-1-29,34,31,27,30,28,25,90,88,86,30.17,30.14,1,0,3,0.08
2013-1-30,61,54,44,56,50,42,90,89,84,29.89,29.60,10,5,18,0.07
2013-2-4,30,29,27,11,9,7,48,43,38,29.79,29.75,8,6,10,0.00
2013-2-5,27,26,24,16,13,11,62,57,53,30.01,29.94,3,1,4,0.00
2013-2-6,40,35,27,27,24,20,88,65,48,30.01,29.96,8,4,8,0.02
2013-2-11,44,44,44,41,41,41,90,90,90,29.76,29.70,2,1,9,0.24
2013-2-13,44,42,36,28,26,25,67,54,48,29.85,29.72,4,2,10,0.00
2013-2-14,46,43,39,24,23,22,54,45,39,29.91,29.85,4,2,10,0.00
2013-2-15,52,50,46,36,36,35,68,58,54,29.90,29.88,7,4,8,0.00
2013-2-19,47,46,44,38,33,30,80,62,55,29.97,29.81,5,3,8,0.01
2013-2-20,34,33,31,19,15,12,55,48,43,29.65,29.61,8,5,11,0.00
2013-2-22,39,38,35,24,23,22,64,56,51,30.36,30.31,6,4,9,0.00
2013-2-25,42,40,36,32,31,29,82,70,66,30.13,30.06,3,2,6,0.25
2013-2-26,43,42,39,34,31,28,84,66,59,30.32,30.26,7,4,10,0.01
2013-2-27,41,40,39,38,38,37,91,91,90,29.81,29.69,12,10,22,1.00
2013-3-1,40,40,39,33,31,29,77,71,65,29.63,29.59,4,2,8,0.00
2013-3-4,41,38,32,26,24,22,66,56,51,29.62,29.56,7,6,14,0.00
2013-3-5,46,44,42,34,30,28,71,60,54,29.99,29.92,5,3,9,0.00
2013-3-8,31,30,30,29,28,27,91,91,91,29.99,29.94,5,4,7,0.00
2013-3-11,53,52,51,42,41,40,67,66,65,30.17,30.16,4,4,9,0.00
2013-3-13,52,52,52,32,28,24,47,40,34,29.69,29.67,6,4,8,0.01
2013-3-14,33,33,32,13,12,12,43,43,42,29.71,29.70,5,5,8,0.00
2013-3-15,27,26,24,9,9,8,51,49,46,29.86,29.83,4,4,6,0.00
2013-3-18,39,37,34,11,9,7,36,32,27,30.39,30.32,4,2,6,0.00
2013-3-19,36,34,33,33,32,31,91,90,90,29.88,29.67,10,6,15,0.37
2013-3-20,40,37,34,22,21,19,60,51,44,29.75,29.71,7,6,12,0.18
2013-3-21,38,36,34,24,23,23,65,60,56,29.67,29.61,3,2,5,0.00
2013-3-22,41,39,37,22,20,18,49,45,42,29.66,29.62,5,4,10,0.00
2013-3-25,43,42,36,34,33,29,77,71,64,29.69,29.50,11,6,17,0.00
2013-3-26,51,46,43,28,26,24,51,45,35,29.67,29.65,5,3,7,0.00
2013-3-29,58,54,47,36,33,28,63,45,35,30.02,29.94,5,3,7,0.00
2013-4-1,62,56,48,45,43,40,82,62,45,29.62,29.50,8,5,13,0.06
2013-4-2,41,39,35,18,15,12,49,38,31,29.87,29.81,9,6,16,0.00
2013-4-4,58,50,41,15,14,12,34,23,17,30.27,30.10,6,4,10,0.00
2013-4-5,62,52,42,31,28,24,64,40,24,29.88,29.61,6,3,17,0.04
2013-4-9,73,65,57,54,50,45,83,60,39,29.88,29.85,8,5,14,0.05
2013-4-10,65,57,51,49,47,45,79,69,56,29.96,29.92,5,2,17,0.05
2013-4-11,52,48,45,44,42,40,88,80,67,30.02,29.97,5,2,8,0.05
2013-4-15,58,54,51,38,35,32,54,48,42,30.38,30.30,6,3,11,0.00
2013-4-16,62,61,60,45,44,44,57,55,54,30.21,30.16,11,9,16,0.00
2013-4-17,62,60,58,41,39,38,52,47,42,30.17,30.16,3,2,9,0.00
2013-4-18,65,61,55,38,35,32,48,37,32,30.39,30.27,7,4,14,0.00
2013-4-22,52,50,47,34,29,24,61,44,33,30.75,30.65,8,5,14,0.00
2013-4-23,43,42,41,40,39,38,92,88,87,30.44,30.29,3,1,7,0.02
2013-4-25,68,59,48,38,35,30,66,43,24,30.09,30.05,5,2,7,0.04
2013-4-29,70,65,54,46,42,34,73,43,30,30.26,30.18,6,4,13,0.00
2013-4-30,71,67,58,33,26,21,39,21,16,30.32,30.28,6,3,9,0.00
2013-5-1,71,69,68,36,33,31,28,26,24,30.44,30.43,5,4,11,0.00
2013-5-2,80,74,63,47,42,37,54,33,23,30.42,30.34,5,2,8,0.00
2013-5-3,62,57,54,44,42,41,62,57,51,30.50,30.45,3,2,9,0.00
2013-5-6,70,61,45,50,47,41,88,63,43,30.28,30.15,6,2,7,0.00
2013-5-7,82,76,69,60,55,51,56,49,42,30.15,30.07,4,2,12,0.00
2013-5-9,70,62,60,62,58,56,89,86,72,29.97,29.89,3,1,6,0.27
2013-5-10,82,79,76,60,58,54,58,50,38,29.90,29.89,4,2,7,0.00
2013-5-13,61,56,52,32,31,29,48,38,31,29.95,29.93,5,4,11,0.00
2013-5-14,61,58,56,33,30,28,40,35,30,30.02,29.98,4,2,6,0.00
2013-5-15,66,63,56,47,37,35,73,39,34,29.96,29.80,8,6,14,0.01
2013-5-16,78,74,70,45,41,38,41,31,24,29.70,29.67,5,3,16,0.00
2013-5-17,72,71,68,44,42,39,40,35,31,30.05,30.01,3,2,9,0.00
2013-5-20,83,75,62,65,63,58,87,68,52,30.04,29.92,5,2,12,0.02
2013-5-21,72,68,63,60,57,55,74,68,63,29.92,29.88,3,2,5,0.00
2013-5-22,63,62,62,56,56,55,80,79,78,29.91,29.90,3,2,5,0.04
2013-5-23,76,75,73,68,67,66,83,78,73,29.86,29.84,8,6,13,0.01
2013-5-24,71,68,65,66,64,61,90,86,80,29.71,29.67,3,1,6,0.22
2013-5-28,78,75,72,48,47,45,42,37,34,30.21,30.16,4,2,7,0.00
2013-5-29,70,63,60,64,59,56,89,87,80,30.09,30.01,4,2,5,0.40
2013-5-31,96,95,94,68,65,64,42,38,36,29.99,29.94,6,4,8,0.00
2013-6-3,76,69,65,67,64,62,89,84,70,29.84,29.76,5,2,8,0.36
2013-6-4,73,73,72,46,46,45,39,38,37,29.93,29.92,2,2,2,0.00
2013-6-5,79,74,69,49,45,44,44,36,32,30.17,30.08,3,2,13,0.00
2013-6-6,75,74,72,53,51,46,49,45,39,30.15,30.10,5,3,11,0.00
2013-6-10,68,67,66,61,59,57,81,74,68,30.19,30.13,2,1,7,0.00
2013-6-11,65,61,58,60,58,55,90,88,83,29.70,29.61,2,0,4,0.54
2013-6-12,71,67,61,58,56,54,87,67,56,29.68,29.60,5,3,8,0.00
2013-6-13,59,58,56,56,54,53,89,89,88,29.76,29.75,2,1,5,0.35
2013-6-14,71,58,53,56,54,51,91,86,60,29.73,29.69,1,0,3,0.80
2013-6-17,87,83,76,64,60,57,64,46,37,29.83,29.76,5,4,14,0.00
2013-6-18,79,75,68,67,64,60,81,68,57,29.92,29.87,3,1,14,0.05
2013-6-19,77,74,70,56,52,49,59,47,41,30.02,29.99,3,1,9,0.01
2013-6-20,81,77,65,54,50,47,63,40,33,30.24,30.20,4,2,6,0.00
2013-6-21,86,84,82,64,62,60,53,47,43,30.21,30.18,3,2,7,0.00
2013-6-24,95,90,85,73,72,72,65,56,47,29.95,29.92,4,3,11,0.00
2013-6-26,87,84,79,75,71,70,76,67,58,29.75,29.74,3,1,5,0.01
2013-6-27,69,68,66,65,64,63,90,88,85,29.80,29.78,2,1,4,0.03
2013-6-28,82,79,75,72,72,70,88,78,69,29.51,29.48,8,6,15,0.38
2013-7-1,84,82,80,74,74,73,82,75,71,29.99,29.97,6,4,14,0.02
2013-7-2,81,80,79,74,73,73,81,79,76,30.13,30.13,5,3,7,0.00
2013-7-3,90,88,87,74,73,72,64,60,56,30.16,30.13,7,4,12,0.00
2013-7-8,84,82,81,74,74,74,79,77,73,29.94,29.93,1,0,4,0.00
2013-7-10,85,80,69,74,72,66,91,78,69,29.97,29.84,7,2,9,0.01
2013-7-11,81,77,72,73,71,69,90,83,73,29.84,29.81,3,2,19,0.16
2013-7-15,96,93,85,74,73,71,68,53,45,30.16,30.10,2,1,5,0.00
2013-7-16,100,96,92,72,70,69,53,43,39,30.10,30.08,2,1,4,0.00
2013-7-17,97,92,87,73,71,69,63,50,41,30.15,30.07,3,2,7,0.00
2013-7-18,90,90,90,72,72,72,57,57,57,29.94,29.94,1,1,1,0.00
2013-7-19,94,93,93,75,74,74,55,54,54,29.85,29.83,5,4,12,0.00
2013-7-22,85,82,80,71,68,66,70,63,58,30.00,29.92,5,2,7,0.00
2013-7-23,81,76,73,77,73,70,91,88,79,29.64,29.53,4,1,6,1.29
2013-7-24,86,84,80,73,70,66,77,62,52,29.70,29.64,4,2,9,0.00
2013-7-26,71,66,63,67,63,60,92,90,85,29.96,29.92,2,0,5,0.49
2013-7-29,85,81,78,73,70,68,79,71,63,30.01,29.95,6,3,9,0.00
2013-7-30,86,81,75,62,59,56,63,48,37,30.08,30.01,3,2,7,0.00
2013-8-5,75,73,69,47,47,46,44,39,36,29.95,29.94,3,2,6,0.00
2013-8-6,83,79,71,56,53,51,53,42,34,30.12,30.09,3,1,4,0.00
2013-8-7,79,76,73,58,55,52,58,50,39,30.17,30.11,4,2,7,0.00
2013-8-8,81,75,70,71,69,66,89,82,71,30.06,30.01,6,3,13,0.07
2013-8-14,77,75,72,54,53,52,51,46,44,29.75,29.71,5,3,15,0.00
2013-8-15,80,77,72,53,51,49,49,40,35,30.06,30.00,5,2,10,0.00
2013-8-16,76,75,74,57,56,55,54,52,48,30.13,30.12,3,2,6,0.00
2013-8-19,86,82,75,63,61,57,66,49,40,30.01,29.94,3,2,8,0.00
2013-8-20,89,87,84,65,61,58,52,43,38,30.05,30.01,5,2,6,0.00
2013-8-21,90,90,90,65,64,63,45,42,40,30.06,30.03,4,3,11,0.00
2013-8-23,87,81,77,60,59,55,56,47,35,29.97,29.93,3,1,7,0.00
2013-8-28,85,85,84,68,68,67,59,58,57,29.88,29.88,2,1,2,0.00
2013-8-29,66,66,66,63,63,62,90,89,88,30.05,30.02,1,0,7,0.01
2013-8-30,84,80,76,68,67,66,72,64,58,29.90,29.83,5,2,8,0.00
2013-9-3,81,78,74,71,69,67,88,76,65,29.76,29.70,4,2,12,0.00
2013-9-4,83,77,73,61,58,56,64,53,40,29.88,29.84,3,2,8,0.00
2013-9-5,73,68,64,62,58,49,91,73,44,29.99,29.93,3,1,6,0.08
2013-9-6,72,71,70,43,41,40,37,34,32,30.19,30.11,3,2,7,0.00
2013-9-9,71,67,61,47,43,40,55,42,38,30.22,30.15,4,2,8,0.00
2013-9-10,75,68,63,69,63,57,90,85,80,30.12,30.02,5,3,18,0.05
2013-9-11,97,92,81,77,74,70,81,57,44,30.05,29.94,5,4,8,0.00
2013-9-12,88,87,82,74,72,71,70,62,58,29.79,29.70,7,6,13,0.00
2013-9-13,77,76,74,66,66,66,74,73,70,29.59,29.57,1,0,2,0.07
2013-9-16,59,58,58,54,52,52,82,81,80,30.05,30.04,0,0,5,0.00
2013-9-17,69,67,66,41,39,37,38,36,34,30.39,30.32,2,1,6,0.00
2013-9-18,78,76,75,45,43,40,33,31,28,30.21,30.14,4,2,12,0.00
2013-9-19,82,82,81,53,52,51,37,36,35,30.02,30.01,3,2,7,0.00
2013-9-20,86,86,85,58,56,53,39,36,33,30.02,29.99,2,1,6,0.00
2013-9-25,72,67,62,50,49,48,61,53,45,29.91,29.87,3,1,6,0.00
2013-9-26,69,68,68,52,50,49,54,53,52,30.02,30.01,2,1,8,0.00
2013-9-27,68,63,58,54,52,51,78,68,56,30.21,30.18,3,1,7,0.00
2013-9-30,73,72,70,53,52,51,53,50,48,30.00,29.96,2,1,4,0.00
2013-10-1,83,79,70,56,53,51,56,40,34,29.92,29.83,2,1,4,0.00
2013-10-2,83,78,68,62,61,59,73,56,48,29.88,29.82,5,3,11,0.00
2013-10-3,82,79,71,54,49,46,52,36,30,30.07,29.99,3,1,7,0.00
2013-10-4,66,65,61,60,59,58,89,81,78,30.03,30.02,1,0,9,0.11
2013-10-7,77,74,70,70,68,67,91,82,73,29.95,29.82,10,6,24,0.04
2013-10-8,71,70,68,45,43,41,44,39,35,30.19,30.17,2,1,4,0.00
2013-10-9,64,63,60,46,45,44,61,53,48,30.39,30.38,3,2,7,0.00
2013-10-10,64,60,47,53,52,45,91,74,65,30.31,30.21,2,1,8,0.00
2013-10-11,75,68,52,58,54,48,88,62,46,30.14,30.08,2,1,6,0.00
2013-10-15,72,67,62,54,53,51,72,61,51,30.19,30.17,3,1,6,0.00
2013-10-16,65,62,54,56,55,52,91,79,70,30.09,29.97,1,0,2,0.00
2013-10-17,74,69,60,61,60,58,90,73,62,29.85,29.75,4,3,9,0.00
2013-10-18,71,68,64,54,49,45,70,52,43,29.77,29.71,6,3,11,0.01
2013-10-21,71,64,50,43,41,39,68,45,34,30.10,30.00,4,2,15,0.00
2013-10-22,70,64,55,53,50,48,85,61,48,29.85,29.69,7,3,13,0.00
2013-10-23,52,51,51,35,33,32,52,50,47,29.65,29.58,0,0,1,0.00
2013-10-24,56,52,45,34,30,25,65,44,32,29.80,29.75,7,4,13,0.00
2013-10-25,52,48,45,35,31,27,66,52,40,30.02,30.00,3,2,8,0.00
2013-10-28,61,57,52,36,34,32,48,42,37,30.14,30.08,7,4,12,0.00
2013-10-29,55,52,45,32,27,22,53,40,30,30.41,30.35,3,1,5,0.00
2013-10-31,61,55,44,56,52,41,91,87,81,30.18,29.98,6,2,9,0.00
2013-11-1,70,67,64,63,59,55,85,76,67,29.55,29.45,11,7,36,0.11
2013-11-4,49,46,41,22,19,16,45,34,28,30.63,30.60,3,1,5,0.00
2013-11-5,55,52,47,31,30,27,51,43,38,30.68,30.55,4,2,7,0.00
2013-11-7,54,53,51,50,49,48,88,88,87,29.72,29.70,2,1,2,0.23
2013-11-8,49,46,43,36,34,32,70,63,53,29.91,29.87,5,3,8,0.00
2013-11-12,35,35,32,25,23,19,66,62,56,30.10,30.03,2,1,6,0.13
2013-11-13,40,37,33,20,18,15,54,45,37,30.25,30.19,4,2,7,0.00
2013-11-14,53,52,50,26,24,22,38,34,31,30.06,30.03,6,3,12,0.00
2013-11-15,63,56,41,27,22,19,40,27,19,30.18,30.09,7,4,10,0.00
2013-11-18,68,66,62,50,46,41,65,51,42,29.56,29.52,7,5,14,0.00
2013-11-19,47,43,39,23,21,20,46,41,38,30.07,29.92,5,3,7,0.00
2013-11-20,47,45,43,16,15,14,34,29,27,30.52,30.49,2,1,4,0.00
2013-11-21,51,49,47,26,22,20,43,35,29,30.55,30.47,4,3,6,0.00
2013-11-22,47,46,44,44,43,41,91,90,90,30.14,29.93,0,0,0,0.17
2013-11-25,37,35,32,9,5,-3,38,29,20,30.33,30.30,4,2,8,0.00
2013-11-26,41,39,35,24,22,20,58,50,44,30.32,30.24,4,2,7,0.00
2013-11-27,61,59,51,58,56,48,91,90,90,29.27,29.18,3,1,5,0.86
2013-12-2,40,38,37,37,36,34,91,91,91,29.97,29.90,1,0,7,0.01
2013-12-3,43,38,36,39,36,34,92,91,86,29.88,29.85,2,0,5,0.00
2013-12-4,46,45,44,30,30,29,58,56,54,30.08,30.07,0,0,2,0.00
2013-12-5,50,48,46,47,44,40,90,86,79,30.12,30.00,2,1,5,0.00
2013-12-6,53,53,53,50,50,50,90,90,89,29.94,29.92,1,0,1,0.00
2013-12-9,40,36,33,37,34,31,91,91,91,30.20,29.92,2,1,4,0.11
2013-12-10,34,33,32,32,31,30,92,91,89,29.92,29.76,4,2,7,0.06
2013-12-11,32,29,24,21,20,18,76,68,64,30.20,30.12,7,5,11,0.06
2013-12-13,29,26,22,16,14,11,61,58,55,30.13,30.04,6,4,9,0.00
2013-12-16,30,29,28,15,13,10,56,51,44,29.94,29.93,5,4,11,0.00
2013-12-17,18,17,13,16,10,3,88,74,63,30.28,30.05,2,0,5,0.00
2013-12-18,37,34,29,24,22,21,76,63,55,29.96,29.87,4,2,7,0.43
2013-12-19,45,40,32,28,25,22,68,56,48,30.05,29.94,8,4,13,0.01
2013-12-20,56,49,38,39,36,31,76,61,49,30.07,29.89,5,2,9,0.00
2013-12-26,30,30,30,28,28,28,90,90,90,30.08,30.07,0,0,0,0.00
2013-12-27,35,33,32,21,20,20,64,59,55,30.20,30.18,3,1,8,0.02
2013-12-30,41,39,36,36,26,16,90,62,41,29.94,29.76,5,3,11,0.00
2013-12-31,29,24,17,10,6,1,53,47,42,30.12,30.01,4,2,7,0.00
2014-1-2,18,17,15,15,14,12,87,87,86,30.26,30.14,1,1,5,0.00